Powrót do katalogu

THORAD AGENA D DEB

AktywnySSO
NORAD 4970·DEBRIS·🇺🇸 United States

Wystrzelony Apr 8, 1970 z Vandenberg Space Force Base

Loading…

Następne Przeloty (najbliższe 24 godziny)

TLE

ŚwieżeSource: Space-Track

Epoka: Sep 14, 2026, 09:40 UTC

1 04970U 70025GQ  26257.40284140  .00000310  00000-0  47555-3 0  9992
2 04970  99.9616 223.7502 0037932   7.4877 144.0100 13.59993411786680

Śledź THORAD AGENA D DEB w czasie rzeczywistym z AllMySat

Download on the App Store